Location: LDNL
(36.4545°S, 141.6685°E)
Time: 12:05:53
(UTC+10:00)

A-11 Canister half - Pass Details

Date: 13 August 2022
Orbit: 1524 x 1684 km, 47.3° (Epoch: 26 September)

Event Time Altitude Azimuth Distance (km) Brightness Sun altitude
Rises 16:44:09 0° 316° (NW) 4,720 13.2 12.8°
Reaches altitude 10° 16:47:14 10° 317° (NW) 3,725 12.8 12.3°
Maximum altitude 16:56:33 72° 39° (NE) 1,600 9.3 10.6°
Drops below altitude 10° 17:05:50 10° 121° (ESE) 3,712 10.4 8.9°
Sets 17:08:54 0° 123° (ESE) 4,703 10.9 8.4°
